This is the latest recevied weather packets stored in our database for station/object N5CSU. If no packets are shown the sender has not sent any weather packets the latest 10 day(s).
| Time | Temp. | Humidity | Pressure | Rain* | Wind** | Luminosity | Snow |
|---|---|---|---|---|---|---|---|
| 1777394182 | 25.56° C | 91% | 1013.4 hPa | 0 mm | - | 12 W/m² | - |
| 1777393878 | 25.56° C | 90% | 1013.2 hPa | 0 mm | - | 12 W/m² | - |
| 1777393577 | 25.56° C | 90% | 1013.2 hPa | 0 mm | - | 14 W/m² | - |
| 1777393273 | 25° C | 90% | 1013.2 hPa | 0 mm | - | 13 W/m² | - |
| 1777392970 | 25° C | 91% | 1013.1 hPa | 0 mm | - | 7 W/m² | - |
| 1777392669 | 25° C | 91% | 1013.2 hPa | 0 mm | - | 10 W/m² | - |
| 1777392366 | 25° C | 90% | 1013.2 hPa | 0 mm | - | 8 W/m² | - |
| 1777392061 | 25° C | 90% | 1013.1 hPa | 0 mm | - | 9 W/m² | - |
| 1777391756 | 25° C | 91% | 1013 hPa | 0 mm | - | 8 W/m² | - |
| 1777391453 | 25° C | 91% | 1012.9 hPa | 0 mm | - | 9 W/m² | - |
| 1777391149 | 25° C | 91% | 1012.8 hPa | 0 mm | - | 10 W/m² | - |
| 1777390845 | 25° C | 92% | 1012.6 hPa | 0 mm | - | 9 W/m² | - |
| 1777390543 | 25° C | 91% | 1012.7 hPa | 0 mm | - | 7 W/m² | - |
| 1777390239 | 25° C | 92% | 1012.7 hPa | 0 mm | - | 12 W/m² | - |
| 1777389935 | 25° C | 93% | 1012.6 hPa | 0 mm | - | 12 W/m² | - |
| 1777389632 | 25° C | 92% | 1012.5 hPa | 0 mm | - | 7 W/m² | - |
| 1777389328 | 25° C | 93% | 1012.5 hPa | 0 mm | - | 12 W/m² | - |
| 1777389026 | 25° C | 93% | 1012.6 hPa | 0 mm | - | 15 W/m² | - |
| 1777388724 | 25° C | 93% | 1012.4 hPa | 0 mm | - | 16 W/m² | - |
| 1777388420 | 25° C | 93% | 1012.4 hPa | 0 mm | - | 15 W/m² | - |
| 1777388120 | 25° C | 94% | 1012.6 hPa | 0 mm | - | 14 W/m² | - |
| 1777387816 | 24.44° C | 93% | 1012.6 hPa | 0 mm | - | 12 W/m² | - |
| 1777387513 | 24.44° C | 93% | 1012.6 hPa | 0 mm | - | 4 W/m² | - |
| 1777387208 | 25° C | 92% | 1012.5 hPa | 0 mm | - | 5 W/m² | - |
| 1777386903 | 25° C | 93% | 1012.5 hPa | 0 mm | - | 5 W/m² | - |
* Rain latest hour (hover to see other rain measurements)
** Current wind speed in m/s (hover to see current wind gust speed)